User: anonymous   Login
Location: Unspecified
(0.0000°N, 0.0000°E)
Time: 12:58:05
(UTC+00:00)
Language:

ISS - Orbit

View from above orbital plane
View from above orbital plane
View from above satellite
View from above satellite

Ground track
Ground track

The orbit data is extracted from the following two-line orbital elements,

1 25544U 98067A   18016.44935509  .00016717  00000-0  10270-3 0  9057
2 25544  51.6407  55.1621 0003577  19.6636 340.4654 15.54316773 14911
Epoch (UTC): 16 January 2018 10:47:04
Eccentricity: 0.0003577
inclination: 51.6407°
perigee height: 402 km
apogee height: 406 km
right ascension of ascending node: 55.1621°
argument of perigee: 19.6636°
revolutions per day: 15.54316773
mean anomaly at epoch: 340.4654°
orbit number at epoch: 1491

The dashed part of the orbit path shows where the satellite is in the earth's shadow,  

DLR